AQI (9)

Current Conditions for Foresthill, CA. Sunny, Dry   
Visibility: 10 miles
Space WX Alerts: CONTINUED ALERT:  Electron 2MeV Integral Flux exceeded 1000pfu ( Latest Alert ) - Issue Time: 2021 Apr 21 0459 UTC

  Summary / Temperature 

Current Temperature
60.8°F
16°C
(24/hr Ago)
64.9°F
(Apparent temp)
58.8°F
Comfortable
Wind Chill Graphs
60.8°F 

61.5°F/ 16.4°C
 --- Virtual Temp: 63.1°F ---

 Temp Rate:

 24/hr Difference:

 Avg Running Temp:

 Todays High:

 Todays Low:

 Y-days High:

 Y-days Low:

 Todays WChill:

 Y-days WChill:

 Evapotranspiration:

+3.7°F/hr 

-4.1°F

56.6°F

60.8°F 10:38am

49.3°F 7:08am

69.6°F 1:32pm

50.2°F 10:39pm

46.5°F 7:56am

50.2°F 10:39pm

0.023 in

115' Above Ground

 Temperature:

 6'AGL VRS 115'AGL:

 Avg Running Temp:

 Humidity:

 Todays High:

 Todays Low:

 Y-days High:

 Y-days Low:

61.0°F 

+0.2°F

61.0°F

0% 

61.0°F 12:00am

61.0°F 12:00am

70.0°F 12:00am

61.0°F 7:05pm

Temp & Humidity Graphs

  Wind 

Wind Speed

 Calm

Gusting to

 9.0 mph

Wind from WSW

252°  WSW

Calm

 Avg speed:

 Wind Run:

 Peak Gust:

  2.0 mph 

6.0 miles

  20.0 mph 1:16am

  Almanac  

Moon age: 8 days,19 hours,4 minutes,65%

Waxing Gibbous
65%
Illuminated
8 days in cycle

 Moonrise:

 Moonset:

 Sunrise:

 Sunset:

 Solar Noon:

1:36pm

3:30am

6:15am

7:44pm

1:02pm

2min 21s more daylight tomorrow 

  Solar Radiation 

(Current Solar)
  749 W/m2 (90%)
(Todays High)
 744 W/m2@10:38am
Feels like: 72.5°F in the sun

Rain

 Rain Today:

 Rain Rate (/hr):

 Rain last hour:

 Rain Yesterday:

 This Month:

 Season Total:

28 Days Since Last Rain Day

0.00 in

0.000 in

0.00 in

0.00 in

0.00 in

22.63 in

Updated Time

Updated: 4/21/21  10:39am

(Updated  sec ago)

Humidity & Barometer

 Humidity:

 Wetbulb:

 Dew Point:

 Barometer:

59% 

53.3°F 

46.4°F 

29.816 inHg 

 Baro Trend:  Steady 
Northern Calif
Preparedness
Fire 
Level 

    UV Index  

(Current UV)
3.9  Medium
(Todays High) @ 10:38am
3.9   Medium

National Weather Service Forecast

Overnight

Overnight: Partly Cloudy
Partly Cloudy
Wednesday

Wednesday: Sunny
Sunny
Wednesday
Night
Wednesday Night: Mostly Clear
Mostly Clear
Thursday

Thursday: Sunny
Sunny
Thursday
Night
Thursday Night: Mostly Clear
Mostly Clear
Friday

Friday: Sunny
Sunny
Lo 47 °F Hi 67 °F Lo 48 °F Hi 71 °F Lo 49 °F Hi 71 °F

Foresthill Probe 2 Stats  
Foresthill Probe 2: is located on Thomas Street
at 3000 feet. The main Foresthill Weather site
is located on Melody ln at the 2860 foot elevation

Calm
59.2°F
15.1°C
Temp Rate:
+3.4°F
Calm
Gusting to
3.0 mph
(Humidity)
66%
Wind from NW
326°  NW
Updated: 21/04/21 - 10:39:55
 Todays High: 61.0°F 10:17
 Todays Low: 47.8°F 05:49
 Rain Today: 0.00 in
 Season Total: 23.52 in

Foresthill Wx: Monthly,Yearly, Highs and Lows 

Foresthill  
This Weather Data is coming from the main Foresthill
Weather site located on Melody ln at the 2860 foot
elevation
Not Foresthill Probe 2
Weather Data
Month
  High
Month
  Low
Year
High
Year
Low
Temp 78.7°F
4/19/21
40.6°F
4/4/21
78.7°F
4/19/21
25.3°F
1/26/21
Humidity 90%
4/5/21
11%
4/18/21
100%
1/3/21
9%
3/30/21
Heat Index 77.6°F
4/19/21
45.0°F
4/14/21
77.6°F
4/19/21
31.2°F
1/26/21
Wind Chill 78.7°F
4/19/21
33.9°F
4/15/21
78.7°F
4/19/21
12.5°F
1/26/21
Wind Gust 31 mph
4/5/21
0 mph
4/1/21
50 mph
1/19/21
0 mph
1/1/21
Barometer 30.18 in
4/8/21
29.73 in
4/13/21
30.52 in
2/21/21
29.73 in
4/13/21
ET 0.23 in
4/17/21
0.00 in
4/1/21
0.23 in
4/17/21
0.00 in
1/1/21
Dew Point 46.9°F
4/21/21
14.4°F
4/18/21
51.9°F
1/13/21
3.6°F
2/24/21
Visible Satellite Pacific Satellite US Radar Satellite Imagery Sacramento,CA.  (click to enlarge)
NWS Weather Forecast - Summary
Updated: Wednesday, April 21, 2021 - 2:32am PDT
Low Humidity with Breezy North to East Winds Today
NWS Weather Forecast: Overnight and Wednesday (Updated: Wed, 21-Apr-2021 3:21am PDT)
Overnight

Overnight: Partly Cloudy
Partly Cloudy

Lo 47 °F
NWS forecast: Partly cloudy, with a low around 47. Northeast wind around 6 mph.
Wednesday

Wednesday: Sunny
Sunny

Hi 67 °F
NWS forecast: Sunny, with a high near 67. West wind 3 to 8 mph.
YR.NO 10 Day Weather forecast
Last update: 04/21/2021 @ 06:18
Next update: 04/21/2021 @ 12:18
Provided by: 22
      Temperature Precipitation Pressure Wind  
Today
04/21/2021
08:00 12:00 50°F   29.81 inHg Light air from east-northeast 3 mph
  12:00 18:00 63°F   29.80 inHg Light breeze from west-southwest 6 mph
  18:00 00:00 64°F   29.75 inHg Light breeze from west-southwest 4 mph
    (Click to enlarge)
meteogram

    Forecast for next 9 days

      Temperature Precip Pressure Wind  
Thursday
04/22/2021
00:00 06:00 43°F   29.82 inHg Light breeze from east-northeast 4 mph
  06:00 12:00 37°F   29.83 inHg Light breeze from east-northeast 5 mph
  12:00 18:00 68°F   29.86 inHg Light breeze from west-southwest 7 mph
  18:00 00:00 66°F   29.81 inHg Light breeze from west-southwest 6 mph
      Temperature Precip Pressure Wind  
Friday
04/23/2021
00:00 06:00 48°F   29.85 inHg Light breeze from east-northeast 6 mph
  06:00 12:00 41°F   29.86 inHg Light breeze from east 5 mph
  12:00 18:00 68°F   29.91 inHg Light breeze from southwest 7 mph
  17:00 23:00 68°F   29.87 inHg Gentle breeze from southwest 8 mph
  23:00 05:00 52°F   29.93 inHg Light breeze from southeast 6 mph
      Temperature Precip Pressure Wind  
Saturday
04/24/2021
05:00 11:00 48°F   29.94 inHg Light breeze from south-southeast 4 mph
  11:00 17:00 55°F   29.99 inHg Light breeze from south-southwest 7 mph
  17:00 23:00 55°F   29.94 inHg Gentle breeze from southwest 8 mph
  23:00 05:00 45°F 0.17 in 29.99 inHg Light breeze from south-southeast 4 mph
      Temperature Precip Pressure Wind  
Sunday
04/25/2021
05:00 11:00 41°F 0.48 in 29.94 inHg Light breeze from south-southeast 5 mph
  11:00 17:00 39°F 0.41 in 29.96 inHg Gentle breeze from south 8 mph
  17:00 23:00 41°F 0.41 in 29.86 inHg Gentle breeze from south-southeast 10 mph
  23:00 05:00 39°F 0.54 in 29.83 inHg Gentle breeze from southeast 8 mph
      Temperature Precip Pressure Wind  
Monday
04/26/2021
05:00 11:00 39°F 0.53 in 29.78 inHg Light breeze from south-southeast 5 mph
  11:00 17:00 43°F 0.05 in 29.84 inHg Light breeze from south 5 mph
  17:00 23:00 50°F < 0.01 in 29.83 inHg Light air from southwest 3 mph
  23:00 05:00 36°F   29.91 inHg Light breeze from east 4 mph
      Temperature Precip Pressure Wind  
Tuesday
04/27/2021
05:00 11:00 30°F   29.98 inHg Light breeze from east 6 mph
  11:00 17:00 54°F   30.05 inHg Light breeze from west 4 mph
  17:00 23:00 57°F   30.04 inHg Light breeze from west-southwest 5 mph
  23:00 05:00 37°F   30.12 inHg Light breeze from east 4 mph
      Temperature Precip Pressure Wind  
Wednesday
04/28/2021
05:00 11:00 34°F   30.12 inHg Light breeze from east 5 mph
  11:00 17:00 61°F   30.15 inHg Light breeze from southwest 5 mph
  17:00 23:00 61°F   30.12 inHg Light breeze from southwest 5 mph
  23:00 05:00 41°F   30.14 inHg Light breeze from east 4 mph
      Temperature Precip Pressure Wind  
Thursday
04/29/2021
05:00 11:00 39°F   30.10 inHg Light air from east 3 mph
  11:00 17:00 64°F   30.09 inHg Light breeze from southwest 5 mph
  17:00 23:00 66°F   30.03 inHg Light breeze from southwest 6 mph
  23:00 05:00 54°F 0.18 in 30.04 inHg Light air from east-southeast 3 mph
      Temperature Precip Pressure Wind  
Friday
04/30/2021
05:00 11:00 50°F 0.04 in 30.00 inHg Light air from east 2 mph
How Close Are We To this Month's Temperature Record ?
Updated Wednesday, Apr 21, 2021- 10:35:00 AM

Current Temperature: 60.8°F

April's High: Temperature Record 83.2°F - Set on Sun, Apr 22, 2012 - 2:12:00 PM
We are currently 22.4°F Less than this Month's record High

April's Low: Temperature Record 31.4°F - Set on Thu, Apr 5, 2012 - 6:23:00 AM
We are currently 29.4°F More than this Month's record Low

Weather History For Wednesday, April 21, 2021


On this Day - In Weather History ...
Data courtesy of weatherforyou.com
powered by Cumulus v1.9.3 (1059)
Ambient Weather VWS v14.00
Top Website Map Copyright © 2007 - 2021 Foresthillweather.com Never base important decisions on this or any weather information obtained from the Internet